North Bennington, VT

6:43 PM EDT on July 26, 2016 (GMT -0400)
Morse State

Weather History for KDDH - March, 2013

Change the Weather History Date:

Thursday, March 21, 2013

  Actual Average Record
Temperature  
Mean Temperature 22 °F 35 °F  
Max Temperature 34 °F 46 °F 77 °F (2012)
Min Temperature 9 °F 24 °F 1 °F (2007)
Degree Days  
Heating Degree Days 43 30  
Month to date heating degree days 717 706  
Since 1 July heating degree days 5501 5957  
Cooling Degree Days 0 0  
Month to date cooling degree days 0 0  
Year to date cooling degree days 0 0  
Moisture  
Dew Point 13 °F    
Average Humidity 59    
Maximum Humidity 84    
Minimum Humidity 33    
Precipitation  
Precipitation T in 0.12 in 0.10 in (2001)
Month to date precipitation 1.05 2.07  
Year to date precipitation 3.71 7.06  
Sea Level Pressure  
Sea Level Pressure 29.72 in    
Wind  
Wind Speed 4 mph (WSW)    
Max Wind Speed 12 mph    
Max Gust Speed 15 mph    
Visibility 9 miles    
Events Snow    
T = Trace of Precipitation, MM = Missing Value Source: NWS Daily Summary

Daily Weather History Graph

Daily Weather History Graph

Search for Another Location

Airport or City:

Trip Planner

Search our weather history database for the weather conditions in past years. The results will help you decide how hot, cold, wet, or windy it might be!

Date:

Astronomy

Mar. 21, 2013 Rise Set
Actual Time 6:54 AM EDT 7:06 PM EDT
Civil Twilight 6:25 AM EDT 7:35 PM EDT
Nautical Twilight 5:52 AM EDT 8:08 PM EDT
Astronomical Twilight 5:18 AM EDT 8:42 PM EDT
Moon 1:27 PM EDT (3/21) 3:21 AM EDT (3/21)
Length of Visible Light 13h 09m
Length of Day
12h 12m
Waxing Gibbous, 68% of the Moon is Illuminated
Mar 21
Waxing Gibbous
Mar 27
Full
Apr 3
Last Quarter
Apr 10
New
Apr 18
First Quarter

Hourly Weather History & Observations

Time (EDT) Temp. Windchill Dew Point Humidity Pressure Visibility Wind Dir Wind Speed Gust Speed Precip Events Conditions
12:54 AM 25.0 °F 17.1 °F 16.0 °F 69% 29.80 in 10.0 mi SSW 6.9 mph - N/A   Clear
1:54 AM 25.0 °F 20.7 °F 16.0 °F 69% 29.80 in 10.0 mi SW 3.5 mph - N/A   Clear
2:54 AM 17.1 °F 8.7 °F 12.9 °F 84% 29.79 in 10.0 mi South 5.8 mph - N/A   Partly Cloudy
3:54 AM 19.9 °F 13.4 °F 14.0 °F 78% 29.78 in 10.0 mi SW 4.6 mph - N/A   Clear
4:54 AM 12.9 °F - 9.0 °F 84% 29.78 in 10.0 mi Calm Calm - N/A   Clear
5:54 AM 12.0 °F - 8.1 °F 84% 29.77 in 10.0 mi Calm Calm - N/A   Clear
6:54 AM 12.0 °F 5.9 °F 8.1 °F 84% 29.77 in 10.0 mi SE 3.5 mph - N/A   Clear
7:54 AM 12.0 °F - 8.1 °F 84% 29.78 in 10.0 mi Calm Calm - N/A   Clear
8:54 AM 21.9 °F - 14.0 °F 72% 29.78 in 10.0 mi Calm Calm - N/A   Clear
9:54 AM 25.0 °F - 12.0 °F 58% 29.78 in 10.0 mi Calm Calm - N/A   Clear
10:54 AM 27.0 °F 21.6 °F 12.9 °F 56% 29.75 in 10.0 mi West 4.6 mph - N/A   Clear
11:54 AM 28.0 °F 20.8 °F 10.9 °F 49% 29.73 in 10.0 mi West 6.9 mph - N/A   Clear
12:54 PM 30.0 °F 23.2 °F 10.9 °F 45% 29.71 in 10.0 mi West 6.9 mph - N/A   Scattered Clouds
1:54 PM 30.9 °F 25.2 °F 10.0 °F 42% 29.68 in 10.0 mi Variable 5.8 mph - N/A   Clear
2:54 PM 32.0 °F - 7.0 °F 35% 29.66 in 10.0 mi Calm Calm - N/A   Mostly Cloudy
3:54 PM 33.1 °F 26.9 °F 10.0 °F 38% 29.65 in 10.0 mi West 6.9 mph - N/A   Partly Cloudy
4:54 PM 32.0 °F 25.6 °F 12.0 °F 44% 29.65 in 10.0 mi West 6.9 mph - N/A   Clear
5:54 PM 32.0 °F 26.4 °F 12.0 °F 44% 29.65 in 10.0 mi Variable 5.8 mph - N/A   Scattered Clouds
6:54 PM 30.0 °F 25.2 °F 12.0 °F 47% 29.66 in 10.0 mi NW 4.6 mph - N/A   Mostly Cloudy
7:54 PM 30.0 °F 25.2 °F 10.9 °F 45% 29.67 in 10.0 mi WSW 4.6 mph - N/A   Mostly Cloudy
8:54 PM 28.9 °F 21.9 °F 14.0 °F 54% 29.68 in 10.0 mi WNW 6.9 mph - N/A   Overcast
9:54 PM 28.0 °F 22.8 °F 14.0 °F 56% 29.68 in 10.0 mi Variable 4.6 mph - N/A   Overcast
10:42 PM 26.6 °F 21.2 °F 19.4 °F 74% 29.65 in 5.0 mi NNW 4.6 mph - 0.00 in Snow Light Snow
10:54 PM 27.0 °F 23.0 °F 19.9 °F 75% 29.68 in 3.0 mi Variable 3.5 mph - 0.00 in Snow Light Snow
11:15 PM 26.6 °F - 19.4 °F 74% 29.65 in 6.0 mi Calm Calm - 0.00 in Snow Light Snow
11:30 PM 26.6 °F - 19.4 °F 74% 29.65 in 10.0 mi Calm Calm - 0.00 in   Overcast
11:54 PM 26.1 °F 20.5 °F 19.0 °F 75% 29.68 in 10.0 mi West 4.6 mph - 0.00 in   Overcast